Simultaneous Nadir Overpasses (SNOs) Predictions

Prediction of SNOs between GOES-16 and FY3D Satellite Orbit:

Table of predicted SNOs for the next 14.0 days since TLE Epoch: 5/4/2024
Index Date Time (GOES-16) GOES-16 Lat,Lon FY3D Lat,Lon Distance(km) Time Diff (sec)
1 05/04/2024 19:26:49 0.01, -75.20 0.03, -75.00 23.12 80
2 05/07/2024 07:33:03 -0.01, -75.22 0.15, -75.81 67.95 80
3 05/08/2024 07:11:52 -0.01, -75.23 -0.88, -71.32 445.11 80
4 05/09/2024 19:36:48 0.01, -75.24 -0.32, -76.67 163.84 80
5 05/10/2024 19:15:37 0.01, -75.25 0.71, -72.19 349.56 80
6 05/12/2024 07:40:23 -0.01, -75.27 0.49, -77.49 253.33 80
7 05/13/2024 07:19:12 -0.01, -75.28 -0.55, -73.01 260.48 80
8 05/14/2024 19:44:07 0.00, -75.30 -0.70, -78.35 347.22 80
9 05/15/2024 19:22:56 0.00, -75.32 0.34, -73.86 167.29 80
10 05/17/2024 07:47:42 -0.00, -75.36 0.85, -79.17 433.83 80
